User: anonymous   Login
Location: Unspecified
(0.0000°N, 0.0000°E)
Time: 17:17:50
(UTC+00:00)
Language:

COSMOS-2408 - Orbit

View from above orbital plane
View from above orbital plane
View from above satellite
View from above satellite

Ground track
Ground track

The orbit data is extracted from the following two-line orbital elements,

1 28419U 04037A   18112.72747051  .00000014  00000-0  29363-4 0  9996
2 28419  82.4899  30.9198 0015358 319.1949  40.7997 12.45611243617373
Epoch (UTC): 22 April 2018 17:27:33
Eccentricity: 0.0015358
inclination: 82.4899°
perigee height: 1471 km
apogee height: 1495 km
right ascension of ascending node: 30.9198°
argument of perigee: 319.1949°
revolutions per day: 12.45611243
mean anomaly at epoch: 40.7997°
orbit number at epoch: 61737

The dashed part of the orbit path shows where the satellite is in the earth's shadow,  

DLR